map of HTGW home
HTGW - Airport
Location
City:  Mbeya, Mbeya, Tanzania
Name:Songwe Airport
ICAO:HTGW

Details
Type:Airport (Aerodrome, Airfield)
Use:Private
Latitude:855'11"S (-8.919721)
Longitude:3316'26"E (33.273889)
Elevation:4412 ft (1345 m)
Variation:1.80W (WMM2015v2 magnetic declination)
0.00 annual change
Runways:1
Longest:10925 ft (3330 m), paved

Time
Time Zone:UTC+3
Local Time:

Weather
TAF:HTGW 040500Z 0406/0506 14010KT 9999 SCT022
BECMG 0411/0413 BKN024 FEW025CB
BECMG 0416/0418 00000KT SCT021 FEW022CB

Related Locations
Nearby:
Farthest:CXI: 11572 mi / 18623 km
Christmas Island (Kiritimati) [Cassidy Intl], L, KI

Find:

   beyond  
but within

Other Information
Maps:
NOTAMs:
Links:
Sources:

  
  • flag of Tanzania
  

Sectional Chart

Flight Planning
at skyvector.com

Satellite Image

Google Maps Satellite view

 

Copyright © 2004-2019 Karl L. Swartz. All rights reserved.
The Great Circle Mapper name and logo are trademarks of the Great Circle Mapper.
All other trademarks mentioned herein belong to their respective owners.
Please see credits for attibutions and further copyright information.

  Follow gcmap on Facebook Follow gcmap on Twitter GCmap on LinkedIn

hCard Microformat

Geo Microformat